Weather History for Erwin, NC

Change the Weather History Date:

Tuesday, September 24, 2013

  Actual Average Record
Temperature  
Mean Temperature 64 °F -  
Max Temperature 75 °F 80 °F 93 °F (1970)
Min Temperature 53 °F 56 °F 37 °F (1966)
Degree Days  
Heating Degree Days 1    
Growing Degree Days 14 (Base 50)    
Moisture  
Dew Point 56 °F    
Average Humidity 78    
Maximum Humidity 100    
Minimum Humidity 45    
Precipitation  
Precipitation 0.00 in - - ()
Sea Level Pressure  
Sea Level Pressure 30.04 in    
Wind  
Wind Speed 0 mph (SE)    
Max Wind Speed 6 mph    
Max Gust Speed -    
Visibility 10 miles    
Events      
Averages and records for this station are not official NWS values.
T = Trace of Precipitation, MM = Missing Value Source: NWS Daily Summary

Daily Weather History Graph

Daily Weather History Graph

Search for Another Location

Airport:

Trip Planner

Search our weather history database for the weather conditions in past years. The results will help you decide how hot, cold, wet, or windy it might be!

Date:

Astronomy

Sep. 24, 2013 Rise Set
Actual Time 7:04 AM EDT 7:08 PM EDT
Civil Twilight 6:39 AM EDT 7:33 PM EDT
Nautical Twilight 6:09 AM EDT 8:03 PM EDT
Astronomical Twilight 5:39 AM EDT 8:33 PM EDT
Moon 10:35 PM EDT (9/24) 12:06 PM EDT (9/24)
Length of Visible Light 12h 54m
Length of Day
12h 03m
Waning Gibbous, 73% of the Moon is Illuminated
Sep 24
Waning Gibbous
Sep 26
Last Quarter
Oct 4
New
Oct 11
First Quarter
Oct 18
Full

Hourly Weather History & Observations

Time (EDT) Temp. Dew Point Humidity Pressure Visibility Wind Dir Wind Speed Gust Speed Precip Events Conditions
12:15 AM 57.6 °F 57.2 °F 99% 30.08 in 10.0 mi Calm Calm - N/A   Clear
12:35 AM 57.4 °F 56.8 °F 98% 30.08 in 10.0 mi Calm Calm - N/A   Clear
12:55 AM 56.7 °F 56.3 °F 99% 30.08 in 10.0 mi Calm Calm - N/A   Clear
1:15 AM 56.5 °F 56.3 °F 99% 30.08 in 10.0 mi Calm Calm - N/A   Clear
1:35 AM 55.9 °F 55.8 °F 99% 30.08 in 10.0 mi Calm Calm - N/A   Clear
1:55 AM 55.6 °F 55.4 °F 99% 30.08 in 10.0 mi Calm Calm - N/A   Clear
2:15 AM 55.4 °F 55.0 °F 99% 30.08 in 10.0 mi Calm Calm - N/A   Clear
2:35 AM 55.4 °F 55.0 °F 99% 30.08 in 10.0 mi Calm Calm - N/A   Clear
2:55 AM 54.7 °F 54.5 °F 99% 30.08 in 7.0 mi Calm Calm - N/A   Clear
3:35 AM 54.5 °F 54.3 °F 99% 30.08 in 10.0 mi Calm Calm - N/A   Clear
3:55 AM 53.8 °F 53.8 °F 100% 30.08 in 7.0 mi NNW 3.5 mph - N/A   Clear
4:15 AM 53.6 °F 53.6 °F 100% 30.07 in 10.0 mi Calm Calm - N/A   Scattered Clouds
4:35 AM 54.1 °F 54.1 °F 100% 30.08 in 10.0 mi Calm Calm - N/A   Mostly Cloudy
4:55 AM 54.9 °F 54.7 °F 99% 30.08 in 10.0 mi Calm Calm - N/A   Overcast
5:35 AM 54.9 °F 54.7 °F 99% 30.09 in 10.0 mi Calm Calm - N/A   Overcast
5:55 AM 54.9 °F 54.7 °F 99% 30.09 in 10.0 mi Calm Calm - N/A   Overcast
6:15 AM 55.0 °F 54.9 °F 99% 30.10 in 10.0 mi Calm Calm - N/A   Overcast
6:35 AM 55.0 °F 54.9 °F 99% 30.09 in 10.0 mi Calm Calm - N/A   Mostly Cloudy
6:55 AM 55.0 °F 54.7 °F 99% 30.10 in 10.0 mi Calm Calm - N/A   Mostly Cloudy
7:15 AM 54.7 °F 54.5 °F 99% 30.10 in 7.0 mi Calm Calm - N/A   Overcast
7:35 AM 54.5 °F 54.5 °F 100% 30.10 in 7.0 mi East 4.6 mph - N/A   Scattered Clouds
7:55 AM 55.8 °F 55.4 °F 99% 30.10 in 10.0 mi Calm Calm - N/A   Clear
8:15 AM 57.9 °F 56.3 °F 94% 30.10 in 3.0 mi Calm Calm - N/A   Clear
8:35 AM 59.0 °F 56.5 °F 91% 30.10 in 10.0 mi Calm Calm - N/A   Scattered Clouds
8:55 AM 60.6 °F 56.5 °F 86% 30.10 in 10.0 mi Calm Calm - N/A   Scattered Clouds
9:15 AM 61.7 °F 56.7 °F 84% 30.10 in 10.0 mi Calm Calm - N/A   Mostly Cloudy
9:35 AM 63.7 °F 55.6 °F 75% 30.10 in 10.0 mi Calm Calm - N/A   Mostly Cloudy
9:55 AM 63.7 °F 54.7 °F 72% 30.11 in 10.0 mi Calm Calm - N/A   Mostly Cloudy
10:15 AM 65.1 °F 55.2 °F 70% 30.11 in 10.0 mi Calm Calm - N/A   Mostly Cloudy
10:35 AM 65.7 °F 55.2 °F 69% 30.11 in 10.0 mi Calm Calm - N/A   Overcast
10:55 AM 67.3 °F 54.3 °F 63% 30.10 in 10.0 mi SSW 3.5 mph - N/A   Overcast
11:15 AM 68.0 °F 53.8 °F 60% 30.10 in 10.0 mi Calm Calm - N/A   Overcast
11:35 AM 68.7 °F 53.8 °F 59% 30.10 in 10.0 mi South 3.5 mph - N/A   Overcast
11:55 AM 70.3 °F 53.4 °F 55% 30.09 in 10.0 mi Calm Calm - N/A   Scattered Clouds
12:15 PM 70.5 °F 53.1 °F 54% 30.08 in 10.0 mi Calm Calm - N/A   Clear
12:35 PM 72.3 °F 53.8 °F 52% 30.07 in 10.0 mi Calm Calm - N/A   Clear
12:55 PM 72.5 °F 54.9 °F 54% 30.06 in 10.0 mi SSE 5.8 mph - N/A   Clear
1:15 PM 72.7 °F 54.0 °F 52% 30.05 in 10.0 mi SSW 3.5 mph - N/A   Scattered Clouds
1:55 PM 73.9 °F 53.4 °F 49% 30.03 in 10.0 mi Calm Calm - N/A   Scattered Clouds
2:15 PM 75.6 °F 53.8 °F 47% 30.02 in 10.0 mi West 4.6 mph - N/A   Scattered Clouds
2:35 PM 75.2 °F 54.0 °F 47% 30.01 in 10.0 mi ENE 4.6 mph - N/A   Mostly Cloudy
2:55 PM 73.6 °F 53.6 °F 50% 30.01 in 10.0 mi Calm Calm - N/A   Overcast
3:15 PM 74.3 °F 54.3 °F 50% 30.00 in 10.0 mi Calm Calm - N/A   Scattered Clouds
3:35 PM 73.9 °F 54.5 °F 51% 30.00 in 10.0 mi Calm Calm - N/A   Clear
3:55 PM 75.0 °F 52.5 °F 45% 29.99 in 10.0 mi Calm Calm - N/A   Scattered Clouds
4:15 PM 75.4 °F 53.8 °F 47% 29.98 in 10.0 mi East 5.8 mph - N/A   Overcast
4:35 PM 75.7 °F 53.1 °F 45% 29.99 in 10.0 mi Calm Calm - N/A   Overcast
4:55 PM 75.2 °F 54.5 °F 48% 29.98 in 10.0 mi East 4.6 mph - N/A   Overcast
5:15 PM 74.5 °F 53.4 °F 48% 29.98 in 10.0 mi Calm Calm - N/A   Mostly Cloudy
5:35 PM 74.7 °F 53.2 °F 47% 29.98 in 10.0 mi Calm Calm - N/A   Scattered Clouds
5:55 PM 72.5 °F 56.8 °F 58% 29.98 in 10.0 mi Calm Calm - N/A   Clear
6:15 PM 72.7 °F 56.8 °F 57% 29.97 in 10.0 mi Calm Calm - N/A   Clear
6:35 PM 73.4 °F 55.4 °F 53% 29.97 in 10.0 mi Calm Calm - N/A   Clear
6:55 PM 71.6 °F 57.2 °F 60% 29.97 in 10.0 mi Calm Calm - N/A   Clear
7:15 PM 68.2 °F 61.5 °F 79% 29.97 in 10.0 mi Calm Calm - N/A   Clear
7:35 PM 67.5 °F 59.2 °F 75% 29.97 in 10.0 mi Calm Calm - N/A   Clear
7:55 PM 66.0 °F 60.6 °F 83% 29.97 in 10.0 mi Calm Calm - N/A   Clear
8:15 PM 65.7 °F 60.3 °F 83% 29.98 in 10.0 mi Calm Calm - N/A   Mostly Cloudy
8:35 PM 65.7 °F 61.2 °F 85% 29.98 in 10.0 mi Calm Calm - N/A   Overcast
8:55 PM 65.3 °F 60.8 °F 85% 29.97 in 10.0 mi Calm Calm - N/A   Mostly Cloudy
9:15 PM 64.8 °F 59.5 °F 83% 29.97 in 10.0 mi Calm Calm - N/A   Scattered Clouds
9:35 PM 63.5 °F 61.0 °F 91% 29.97 in 10.0 mi Calm Calm - N/A   Clear
9:55 PM 62.6 °F 61.0 °F 94% 29.97 in 10.0 mi Calm Calm - N/A   Clear
10:15 PM 61.9 °F 60.8 °F 96% 29.97 in 10.0 mi Calm Calm - N/A   Clear
10:35 PM 61.7 °F 60.8 °F 97% 29.98 in 10.0 mi Calm Calm - N/A   Mostly Cloudy
10:55 PM 61.7 °F 60.8 °F 97% 29.98 in 10.0 mi Calm Calm - N/A   Overcast
11:15 PM 62.1 °F 60.8 °F 96% 29.98 in 10.0 mi Calm Calm - N/A   Overcast
11:35 PM 61.9 °F 61.0 °F 97% 29.97 in 10.0 mi Calm Calm - N/A   Overcast
11:55 PM 61.0 °F 59.9 °F 96% 29.97 in 10.0 mi Calm Calm - N/A   Scattered Clouds